TimeEST,TemperatureF,Dew PointF,Humidity,Sea Level PressureIn,VisibilityMPH,Wind Direction,Wind SpeedMPH,Gust SpeedMPH,PrecipitationIn,Events,Conditions,WindDirDegrees,DateUTC
12:15 AM,34.0,27.5,77,30.02,10.0,Calm,Calm,-,N/A,,Overcast,0,2012-11-26 05:15:00
12:35 AM,34.2,28.2,79,30.03,10.0,Calm,Calm,-,N/A,,Overcast,0,2012-11-26 05:35:00
12:55 AM,34.3,28.4,79,30.03,10.0,Calm,Calm,-,N/A,,Overcast,0,2012-11-26 05:55:00
1:15 AM,34.7,28.0,77,30.03,10.0,Calm,Calm,-,N/A,,Mostly Cloudy,0,2012-11-26 06:15:00
1:35 AM,34.3,29.1,81,30.04,10.0,Calm,Calm,-,N/A,,Scattered Clouds,0,2012-11-26 06:35:00
1:55 AM,34.2,28.0,78,30.04,10.0,Calm,Calm,-,N/A,,Clear,0,2012-11-26 06:55:00
2:15 AM,34.2,27.5,77,30.04,7.0,Calm,Calm,-,N/A,,Clear,0,2012-11-26 07:15:00
2:35 AM,33.3,28.4,82,30.05,10.0,Calm,Calm,-,N/A,,Clear,0,2012-11-26 07:35:00
3:15 AM,32.9,28.4,84,30.06,10.0,Calm,Calm,-,N/A,,Clear,0,2012-11-26 08:15:00
3:35 AM,33.1,28.0,82,30.07,10.0,Calm,Calm,-,N/A,,Clear,0,2012-11-26 08:35:00
3:55 AM,32.9,28.9,85,30.07,10.0,Calm,Calm,-,N/A,,Clear,0,2012-11-26 08:55:00
4:15 AM,33.1,29.3,86,30.08,10.0,Calm,Calm,-,N/A,,Clear,0,2012-11-26 09:15:00
4:35 AM,33.3,28.4,82,30.08,10.0,Calm,Calm,-,N/A,,Clear,0,2012-11-26 09:35:00
4:55 AM,33.3,28.4,82,30.08,10.0,Calm,Calm,-,N/A,,Scattered Clouds,0,2012-11-26 09:55:00
5:15 AM,33.1,28.9,85,30.09,10.0,Calm,Calm,-,N/A,,Mostly Cloudy,0,2012-11-26 10:15:00
5:35 AM,33.1,28.8,84,30.10,10.0,Calm,Calm,-,N/A,,Mostly Cloudy,0,2012-11-26 10:35:00
5:55 AM,32.4,28.6,86,30.11,10.0,Calm,Calm,-,N/A,,Overcast,0,2012-11-26 10:55:00
6:15 AM,31.3,27.9,87,30.11,10.0,Calm,Calm,-,N/A,,Scattered Clouds,0,2012-11-26 11:15:00
6:35 AM,30.6,26.2,84,30.11,10.0,Calm,Calm,-,N/A,,Clear,0,2012-11-26 11:35:00
6:55 AM,28.9,25.3,86,30.13,10.0,Calm,Calm,-,N/A,,Clear,0,2012-11-26 11:55:00
7:15 AM,29.1,26.1,88,30.13,10.0,Calm,Calm,-,N/A,,Clear,0,2012-11-26 12:15:00
7:35 AM,28.2,25.9,91,30.14,10.0,Calm,Calm,-,N/A,,Clear,0,2012-11-26 12:35:00
7:55 AM,27.5,25.2,91,30.14,10.0,Calm,Calm,-,N/A,,Clear,0,2012-11-26 12:55:00
8:15 AM,28.0,25.7,91,30.15,10.0,Calm,Calm,-,N/A,,Clear,0,2012-11-26 13:15:00
8:35 AM,29.3,26.4,89,30.15,10.0,Calm,Calm,-,N/A,,Clear,0,2012-11-26 13:35:00
8:55 AM,30.9,27.9,88,30.16,10.0,Calm,Calm,-,N/A,,Clear,0,2012-11-26 13:55:00
9:15 AM,33.6,29.8,86,30.16,10.0,Calm,Calm,-,N/A,,Clear,0,2012-11-26 14:15:00
9:35 AM,36.7,29.7,76,30.17,10.0,Calm,Calm,-,N/A,,Clear,0,2012-11-26 14:35:00
9:55 AM,40.1,30.4,68,30.18,10.0,Calm,Calm,-,N/A,,Clear,0,2012-11-26 14:55:00
10:15 AM,41.7,29.7,62,30.18,10.0,Calm,Calm,-,N/A,,Clear,0,2012-11-26 15:15:00
10:35 AM,43.0,28.9,58,30.19,10.0,Calm,Calm,-,N/A,,Clear,0,2012-11-26 15:35:00
10:55 AM,45.1,30.2,56,30.19,10.0,Calm,Calm,-,N/A,,Clear,0,2012-11-26 15:55:00
11:15 AM,45.5,29.5,54,30.19,10.0,Calm,Calm,-,N/A,,Clear,0,2012-11-26 16:15:00
11:35 AM,46.0,28.9,51,30.19,10.0,Calm,Calm,-,N/A,,Clear,0,2012-11-26 16:35:00
11:55 AM,46.6,29.7,52,30.18,10.0,Calm,Calm,-,N/A,,Clear,0,2012-11-26 16:55:00
12:15 PM,46.8,28.9,50,30.17,10.0,Calm,Calm,-,N/A,,Clear,0,2012-11-26 17:15:00
12:35 PM,48.2,28.8,47,30.16,10.0,Calm,Calm,-,N/A,,Clear,0,2012-11-26 17:35:00
12:55 PM,49.1,28.4,45,30.16,10.0,Calm,Calm,-,N/A,,Clear,0,2012-11-26 17:55:00
1:15 PM,49.8,28.2,43,30.15,10.0,Calm,Calm,-,N/A,,Clear,0,2012-11-26 18:15:00
1:35 PM,50.5,28.0,42,30.15,10.0,Calm,Calm,-,N/A,,Clear,0,2012-11-26 18:35:00
1:55 PM,50.9,27.5,40,30.15,10.0,Calm,Calm,-,N/A,,Clear,0,2012-11-26 18:55:00
2:15 PM,51.3,28.0,41,30.14,10.0,East,3.5,-,N/A,,Clear,80,2012-11-26 19:15:00
2:35 PM,52.0,27.3,39,30.13,10.0,Calm,Calm,-,N/A,,Clear,0,2012-11-26 19:35:00
2:55 PM,51.8,27.1,39,30.13,10.0,Calm,Calm,-,N/A,,Clear,0,2012-11-26 19:55:00
3:15 PM,51.8,26.1,37,30.13,10.0,Calm,Calm,-,N/A,,Clear,0,2012-11-26 20:15:00
3:35 PM,52.3,26.6,37,30.13,10.0,Calm,Calm,-,N/A,,Clear,0,2012-11-26 20:35:00
3:55 PM,52.0,25.9,36,30.13,10.0,Calm,Calm,-,N/A,,Clear,0,2012-11-26 20:55:00
4:15 PM,50.5,27.1,40,30.14,10.0,Calm,Calm,-,N/A,,Mostly Cloudy,0,2012-11-26 21:15:00
4:35 PM,50.7,27.0,40,30.13,10.0,Calm,Calm,-,N/A,,Mostly Cloudy,0,2012-11-26 21:35:00
4:55 PM,49.8,28.4,44,30.13,10.0,Calm,Calm,-,N/A,,Mostly Cloudy,0,2012-11-26 21:55:00
5:15 PM,50.0,28.0,43,30.13,10.0,Calm,Calm,-,N/A,,Overcast,0,2012-11-26 22:15:00
5:35 PM,47.3,31.1,53,30.14,10.0,Calm,Calm,-,N/A,,Overcast,0,2012-11-26 22:35:00
5:55 PM,47.1,30.4,52,30.14,10.0,Calm,Calm,-,N/A,,Overcast,0,2012-11-26 22:55:00
6:15 PM,46.2,31.1,56,30.14,10.0,Calm,Calm,-,N/A,,Overcast,0,2012-11-26 23:15:00
6:35 PM,46.2,30.9,55,30.14,10.0,Calm,Calm,-,N/A,,Overcast,0,2012-11-26 23:35:00
6:55 PM,46.0,31.1,56,30.14,10.0,Calm,Calm,-,N/A,,Overcast,0,2012-11-26 23:55:00
7:15 PM,45.7,31.1,57,30.15,10.0,Calm,Calm,-,N/A,,Overcast,0,2012-11-27 00:15:00
7:35 PM,44.2,32.2,63,30.16,10.0,Calm,Calm,-,N/A,,Overcast,0,2012-11-27 00:35:00
7:55 PM,44.6,32.0,61,30.16,10.0,Calm,Calm,-,N/A,,Overcast,0,2012-11-27 00:55:00
8:15 PM,45.0,30.6,57,30.16,10.0,NNW,6.9,-,N/A,,Overcast,340,2012-11-27 01:15:00
8:35 PM,45.5,30.0,55,30.17,10.0,Calm,Calm,-,N/A,,Overcast,0,2012-11-27 01:35:00
8:55 PM,45.5,27.7,50,30.16,10.0,ENE,3.5,-,N/A,,Overcast,60,2012-11-27 01:55:00
9:15 PM,45.5,26.1,47,30.16,10.0,ESE,3.5,-,N/A,,Overcast,110,2012-11-27 02:15:00
9:35 PM,44.8,26.2,48,30.17,10.0,ENE,4.6,-,N/A,,Overcast,60,2012-11-27 02:35:00
9:55 PM,44.6,26.2,49,30.16,10.0,North,5.8,-,N/A,,Overcast,10,2012-11-27 02:55:00
10:15 PM,43.7,25.7,49,30.17,10.0,North,3.5,-,N/A,,Mostly Cloudy,350,2012-11-27 03:15:00
10:35 PM,43.7,25.9,50,30.18,10.0,NNW,3.5,-,N/A,,Overcast,340,2012-11-27 03:35:00
10:55 PM,43.7,25.5,49,30.17,10.0,Calm,Calm,-,N/A,,Overcast,0,2012-11-27 03:55:00
11:15 PM,43.7,25.2,48,30.18,10.0,North,3.5,-,N/A,,Overcast,350,2012-11-27 04:15:00
11:35 PM,43.7,24.4,47,30.18,10.0,North,5.8,-,N/A,,Overcast,10,2012-11-27 04:35:00